Regional Weather Roundup
Issued by NWS

Home | Current Version | Previous Version | Graphics & Text | Print | Product List | Glossary On
Versions: 1 2 3 4 5 6 7 8 9 10 11 12 13 14 15 16 17 18 19 20 21 22 23 24 25 26 27 28 29 30 31 32 33 34 35 36 37 38 39 40 41 42 43 44 45 46 47 48 49 50
330
ASUS45 KPSR 250110
RWRAZ

ARIZONA HOURLY REGIONAL WEATHER ROUNDUP
NATIONAL WEATHER SERVICE PHOENIX AZ
600 PM MST SUN JUL 24 2016

NOTE: FAIR INDICATES FEW OR NO CLOUDS BELOW 12,000 FEET WITH NO
SIGNIFICANT WEATHER AND/OR OBSTRUCTIONS TO VISIBILITY.

AZZ001>003-036-250200-
NORTHWEST ARIZONA

CITY           SKY/WX    TMP DP  RH WIND       PRES   REMARKS
BULLHEAD CITY  SUNNY    109  54  16 S14       29.71F HX 108
KINGMAN        SUNNY     97  51  21 SW17G28   29.97F
$$

AZZ004>008-015-016-018-250200-
NORTH CENTRAL ARIZONA

CITY           SKY/WX    TMP DP  RH WIND       PRES   REMARKS
GRAND CANYON   TSTM      74  54  49 E17G24    30.31R
WILLIAMS       MOSUNNY   86  45  23 SW13      30.32R
PRESCOTT       MOSUNNY   91  49  23 W14       30.11F
FLAGSTAFF      PTSUNNY   80  45  28 S5        30.28R
PAYSON         MOSUNNY   88  46  23 NE12      30.15S
PAGE           CLOUDY    93  43  17 NW7       30.04R
$$

AZZ009>014-017-250200-
NORTHEAST ARIZONA

CITY           SKY/WX    TMP DP  RH WIND       PRES   REMARKS
WINSLOW        PTSUNNY   89  47  23 SW13      30.09S
SAINT JOHNS    LGT RAIN  72  59  63 SE15      30.21R
WINDOW ROCK    CLOUDY    84  45  25 E3        30.23S
SHOW LOW       CLOUDY    73  45  35 SE25G32   30.26S
$$

AZZ023-250200-
GREATER PHOENIX AREA

CITY           SKY/WX    TMP DP  RH WIND       PRES   REMARKS
PHOENIX        MOSUNNY  107  57  19 W10G23    29.76S HX 107
BUCKEYE        SUNNY    104  55  20 W12       29.78F HX 103
GLENDALE       MOSUNNY  108  54  16 SW14      29.78S HX 106
LUKE AFB       SUNNY    107  57  19 W13G18    29.76S HX 106
DEER VALLEY    SUNNY    105  56  19 SW13G20   29.78F HX 104
SCOTTSDALE     SUNNY    105  55  19 W10       29.81S HX 104
MESA-FALCON    MOSUNNY  N/A N/A N/A W9        29.77S
MESA-GATEWAY   PTSUNNY  102  57  22 NW12      29.80  HX 101
CHANDLER       MOSUNNY  106  55  18 W14       29.78F HX 105
$$

AZZ027-028-250200-
SOUTHWEST MARICOPA COUNTY AND PINAL COUNTY

CITY           SKY/WX    TMP DP  RH WIND       PRES   REMARKS
CASA GRANDE    SUNNY    106  55  18 W13       29.83S HX 105
GILA BEND      FAIR     107  53  16 W10       29.75R HX 105
$$

AZZ503-504-507>509-250200-
SOUTHEAST ARIZONA

CITY           SKY/WX    TMP DP  RH WIND       PRES   REMARKS
TUCSON         SUNNY    100  55  22 N15       29.91S
DAVIS-MONTHAN  SUNNY     99  56  24 NW16      29.90R
RYAN FIELD     SUNNY    100  55  22 NW16G22   29.89S
NOGALES        CLOUDY    91  58  32 W10       30.01R
SIERRA VISTA   MOSUNNY   92  54  27 NW15      30.08R
DOUGLAS        SUNNY     94  56  27 MISG      29.98S
SAFFORD        PTSUNNY   99  50  19 N8G18     29.89R
$$

AZZ020-021-025-026-031-250200-
SOUTHWEST ARIZONA

CITY           SKY/WX    TMP DP  RH WIND       PRES   REMARKS
YUMA           SUNNY    100  63  29 S18       29.76S HX 102
$$

CAZ031-033-041-043-047-048-061-250200-
SOUTHERN CALIFORNIA

CITY           SKY/WX    TMP DP  RH WIND       PRES   REMARKS
DOWNTOWN L.A.  SUNNY     86  65  49 VRB5      29.85F
L.A. AIRPORT   MOSUNNY   78  66  66 W10       29.87F
SAN DIEGO      PTSUNNY   75  63  66 VRB6      29.89F
BURBANK        SUNNY     93  43  17 SE8       29.87F
ONTARIO        MOSUNNY   94  44  17 W17G24    29.87F
RIVERSIDE      SUNNY     94  48  20 W13       29.86F
PALM SPRINGS   SUNNY    107  63  23 E10       29.74F HX 110
EL CENTRO NAS  LGT RAIN 101  64  29 SE20      29.72S HX 104
IMPERIAL       CLOUDY   102  67  31 SE24      29.71S HX 107
BLYTHE         PTSUNNY  109  56  17 S18       29.72F HX 108
NEEDLES        CLOUDY   111  58  17 S15G22    29.73F HX 111
$$

NVZ020-UTZ003-250200-
SOUTHERN NEVADA-UTAH

CITY           SKY/WX    TMP DP  RH WIND       PRES   REMARKS
LAS VEGAS      SUNNY    109  31   7 S12G20    29.75F HX 101
SALT LAKE CITY MOSUNNY   95  30  10 N10       30.01F
$$

NMZ009-TXZ055-250200-
NEW MEXICO-WEST TEXAS

CITY           SKY/WX    TMP DP  RH WIND       PRES   REMARKS
ALBUQUERQUE    CLOUDY    77  56  48 N25G36    30.18R
EL PASO        FAIR     103  43  13 S5        29.88F
$$


........................KEY........................
SKY/WX - SKY CONDITION/WEATHER
TMP    - TEMPERATURE IN FAHRENHEIT
DP     - DEW POINT IN FAHRENHEIT
RH     - RELATIVE HUMIDITY IN PERCENT
WIND   - DIRECTION AND SPEED IN MILES PER HOUR (MPH)
VRB    - VARIABLE WIND DIRECTION
PRES   - MEAN SEA LEVEL PRESSURE IN INCHES OF MERCURY
         F - FALLING PRESSURE   R - RISING PRESSURE
         S - STEADY PRESSURE
VSB    - VISIBILITY IN MILES
HX     - HEAT INDEX IN FAHRENHEIT
WCI    - WIND CHILL INDEX IN FAHRENHEIT
TC     - TEMPERATURE IN CELSIUS WHICH IS ALSO KNOWN AS
         TEMPERATURE IN CENTIGRADE
AFB    - AIR FORCE BASE
         LUKE AFB IS LUKE AIR FORCE BASE
         DAVIS-MONTHAN IS DAVIS-MONTHAN AIR FORCE BASE
NAS    - NAVAL AIR STATION
         EL CENTRO NAS IS EL CENTRO NAVAL AIR STATION
N/A    - NOT AVAILABLE





USA.gov is the U.S. government's official web portal to all federal, state and local government web resources and services.